Hourly Data Report for June 28, 2021

WRIGLEY A
NORTHWEST TERRITORIES
Current Station Operator: NAVCAN

63°12'35.000" N
123°26'12.000" W
149.70 m
2204005
YWY

Download Data

Hourly Data (June 2021)
Hourly Data Report for June 28, 2021
TIME
LST
Temp Definition
°C
Dew Point Definition
°C
Rel Hum Definition
%
Precip. Amount Definition
mm

Wind Dir Definition
10's deg

Wind Spd Definition
km/h
Visibility Definition
km
Stn Press Definition
kPa
Hmdx Definition


Wind Chill Definition


Weather Definition


00:00 20.3 12.4 60 LegendMM 30 10 LegendMM 99.93     LegendNANA
01:00 19.8 12.5 62 LegendMM 30 6 LegendMM 99.94     LegendNANA
02:00 19.0 12.3 65 LegendMM 7 7 LegendMM 99.98     LegendNANA
03:00 17.8 12.8 73 LegendMM 5 4 LegendMM 99.96     LegendNANA
04:00 16.4 12.6 78 LegendMM 14 5 LegendMM 99.98     LegendNANA
05:00 16.6 13.2 80 LegendMM 18 2 LegendMM 100.04     LegendNANA
06:00 17.1 13.1 77 LegendMM 11 7 LegendMM 99.98     LegendNANA
07:00 19.0 13.1 68 LegendMM 16 8 LegendMM 99.96     LegendNANA
08:00 21.2 12.6 57 LegendMM 14 13 LegendMM 99.91     LegendNANA
09:00 23.0 12.1 50 LegendMM 14 16 LegendMM 99.88 25   LegendNANA
10:00 25.1 11.2 41 LegendMM 15 18 LegendMM 99.82 27   LegendNANA
11:00 25.8 11.8 41 LegendMM 14 17 LegendMM 99.76 28   LegendNANA
12:00 26.9 10.6 36 LegendMM 14 24 LegendMM 99.68 28   LegendNANA
13:00 28.3 11.5 35 LegendMM 15 19 LegendMM 99.61 30   LegendNANA
14:00 29.5 10.7 31 LegendMM 14 23 LegendMM 99.52 31   LegendNANA
15:00 30.1 11.8 32 LegendMM 14 20 LegendMM 99.46 32   LegendNANA
16:00 30.8 12.3 31 LegendMM 14 18 LegendMM 99.38 33   LegendNANA
17:00 31.2 13.1 33 LegendMM 14 21 LegendMM 99.29 34   LegendNANA
18:00 31.5 13.7 33 LegendMM 15 19 LegendMM 99.22 35   LegendNANA
19:00 31.2 13.6 34 LegendMM 15 15 LegendMM 99.18 34   LegendNANA
20:00 29.5 13.0 36 LegendMM 14 26 LegendMM 99.13 32   LegendNANA
21:00 29.4 12.4 34 LegendMM 13 18 LegendMM 99.11 32   LegendNANA
22:00 28.0 12.2 37 LegendMM 14 12 LegendMM 99.10 30   LegendNANA
23:00 27.1 11.6 38 LegendMM 14 15 LegendMM 99.03 29   LegendNANA

Notes on Data Quality.

Legend

  • E = Estimated
  • M = Missing
  • NA = Not Available*
  • [empty] = Indicates an unobserved value
Date modified: